Weather History for Forest City, IA

Change the Weather History Date:

Monday, January 28, 2013

  Actual Average Record
Temperature  
Mean Temperature 30 °F -  
Max Temperature 33 °F 22 °F 33 °F (2013)
Min Temperature 28 °F 3 °F -13 °F (2014)
Degree Days  
Heating Degree Days 34    
Moisture  
Dew Point 31 °F    
Average Humidity 98    
Maximum Humidity 100    
Minimum Humidity 93    
Precipitation  
Precipitation 0.02 in - - ()
Sea Level Pressure  
Sea Level Pressure 29.77 in    
Wind  
Wind Speed 2 mph (ESE)    
Max Wind Speed 12 mph    
Max Gust Speed -    
Averages and records for this station are not official NWS values.
T = Trace of Precipitation, MM = Missing Value Source: NWS Daily Summary

Daily Weather History Graph

Daily Weather History Graph

Search for Another Location

Airport:

Trip Planner

Search our weather history database for the weather conditions in past years. The results will help you decide how hot, cold, wet, or windy it might be!

Date:

Astronomy

Jan. 28, 2013 Rise Set
Actual Time 7:33 AM CST 5:21 PM CST
Civil Twilight 7:03 AM CST 5:52 PM CST
Nautical Twilight 6:28 AM CST 6:26 PM CST
Astronomical Twilight 5:55 AM CST 7:00 PM CST
Moon 7:21 PM CST (1/28) 7:55 AM CST (1/28)
Length of Visible Light 10h 48m
Length of Day
9h 47m
Full, 98% of the Moon is Illuminated
Jan 28
Full
Feb 3
Last Quarter
Feb 10
New
Feb 17
First Quarter
Feb 25
Full

Hourly Weather History & Observations

Time (CST) Temp. Windchill Dew Point Humidity Pressure Visibility Wind Dir Wind Speed Gust Speed Precip Events Conditions
12:15 AM 32.0 °F - 32.0 °F 100% 29.76 in 0.8 mi Calm Calm - N/A   Overcast
12:35 AM 32.0 °F - 32.0 °F 100% 29.77 in 0.5 mi Calm Calm - N/A Fog Fog
12:55 AM 32.0 °F - 32.0 °F 100% 29.77 in 0.5 mi Calm Calm - N/A Fog Light Freezing Fog
1:15 AM 32.0 °F - 30.2 °F 93% 29.76 in 0.2 mi Calm Calm - N/A Fog Light Freezing Fog
1:35 AM 32.0 °F - 32.0 °F 100% 29.77 in 0.2 mi Calm Calm - N/A Fog Light Freezing Fog
1:55 AM 32.0 °F - 30.2 °F 93% 29.79 in 0.2 mi Calm Calm - N/A Fog Light Freezing Fog
2:15 AM 32.0 °F - 32.0 °F 100% 29.80 in 0.5 mi Calm Calm - N/A Fog Light Freezing Fog
2:35 AM 32.0 °F 28.7 °F 32.0 °F 100% 29.80 in 0.5 mi WNW 3.5 mph - N/A Fog Fog
2:55 AM 32.0 °F 28.7 °F 32.0 °F 100% 29.80 in 0.8 mi WNW 3.5 mph - N/A   Overcast
3:15 AM 32.0 °F 28.7 °F 32.0 °F 100% 29.81 in 1.0 mi NW 3.5 mph - N/A   Overcast
3:35 AM 32.0 °F 27.5 °F 32.0 °F 100% 29.81 in 0.8 mi WNW 4.6 mph - N/A   Overcast
3:55 AM 32.0 °F 28.7 °F 30.2 °F 93% 29.81 in 0.5 mi NW 3.5 mph - N/A Fog Light Freezing Fog
4:15 AM 32.0 °F 28.7 °F 30.2 °F 93% 29.82 in 0.5 mi NW 3.5 mph - N/A Fog Light Freezing Fog
4:35 AM 30.2 °F - 30.2 °F 100% 29.83 in 0.5 mi Calm Calm - N/A Snow Light Snow
4:55 AM 30.2 °F - 30.2 °F 100% 29.83 in 0.5 mi Calm Calm - N/A Fog Light Freezing Fog
5:15 AM 30.2 °F - 30.2 °F 100% 29.84 in 0.5 mi Calm Calm - N/A Snow Light Snow
5:35 AM 30.2 °F - 30.2 °F 100% 29.84 in 0.2 mi Calm Calm - N/A Fog Light Freezing Fog
5:55 AM 30.2 °F - 30.2 °F 100% 29.84 in 0.2 mi Calm Calm - N/A Snow Light Snow
6:15 AM 30.2 °F - 30.2 °F 100% 29.84 in 0.2 mi Calm Calm - N/A Fog Light Freezing Fog
6:35 AM 30.2 °F - 28.4 °F 93% 29.85 in 0.2 mi Calm Calm - N/A Fog Light Freezing Fog
6:55 AM 30.2 °F - 28.4 °F 93% 29.84 in 0.2 mi Calm Calm - N/A Fog Light Freezing Fog
7:15 AM 30.2 °F - 28.4 °F 93% 29.85 in 0.2 mi Calm Calm - N/A Fog Light Freezing Fog
7:35 AM 30.2 °F - 28.4 °F 93% 29.87 in 0.2 mi Calm Calm - N/A Fog Light Freezing Fog
7:55 AM 28.4 °F - 28.4 °F 100% 29.88 in 0.2 mi Calm Calm - N/A Fog Light Freezing Fog
8:15 AM 28.4 °F - 28.4 °F 100% 29.88 in 0.2 mi Calm Calm - N/A Fog Light Freezing Fog
8:35 AM 28.4 °F - 28.4 °F 100% 29.87 in 0.2 mi Calm Calm - N/A Fog Light Freezing Fog
8:55 AM 28.4 °F - 28.4 °F 100% 29.88 in 0.2 mi Calm Calm - N/A Fog Light Freezing Fog
9:15 AM 28.4 °F - 28.4 °F 100% 29.88 in 0.2 mi Calm Calm - N/A Fog Light Freezing Fog
9:35 AM 30.2 °F - 28.4 °F 93% 29.87 in 0.2 mi Calm Calm - N/A Fog Light Freezing Fog
9:55 AM 30.2 °F - 28.4 °F 93% 29.87 in 0.2 mi Calm Calm - N/A Fog Light Freezing Fog
10:37 AM - - - N/A% 29.89 in 0.2 mi Calm Calm - N/A Fog Fog
12:55 PM - - - N/A% 29.83 in 0.2 mi SE 3.5 mph - N/A Fog Fog
12:56 PM - - - N/A% 29.83 in 0.2 mi SE 3.5 mph - N/A Fog Fog
1:55 PM - - - N/A% 29.81 in 0.2 mi SE 3.5 mph - N/A Fog Fog
2:15 PM - - - N/A% 29.80 in 0.2 mi ESE 3.5 mph - N/A Fog Fog
2:35 PM - - - N/A% 29.79 in 0.2 mi ESE 3.5 mph - N/A Fog Fog
2:55 PM - - - N/A% 29.79 in 0.2 mi East 3.5 mph - N/A Fog Fog
3:15 PM - - - N/A% 29.79 in 0.2 mi East 5.8 mph - N/A Fog Fog
3:35 PM - - - N/A% 29.79 in 0.2 mi ESE 4.6 mph - N/A Fog Fog
3:55 PM - - - N/A% 29.77 in 0.2 mi ESE 4.6 mph - N/A Fog Fog
4:15 PM - - - N/A% 29.77 in 0.5 mi ESE 4.6 mph - N/A Fog Fog
4:35 PM - - - N/A% 29.77 in 0.2 mi ESE 5.8 mph - N/A Fog Fog
4:55 PM - - - N/A% 29.76 in 0.2 mi ESE 5.8 mph - N/A Fog Fog
5:15 PM - - - N/A% 29.75 in 0.2 mi ESE 5.8 mph - N/A Fog Fog
5:35 PM - - - N/A% 29.74 in 0.2 mi ESE 3.5 mph - N/A Fog Fog
5:55 PM - - - N/A% 29.74 in 0.5 mi ESE 3.5 mph - N/A Fog Fog
6:15 PM - - - N/A% 29.74 in 0.8 mi ESE 4.6 mph - N/A   Overcast
6:35 PM - - - N/A% 29.73 in 1.2 mi ESE 4.6 mph - N/A   Overcast
6:55 PM 32.0 °F 26.4 °F 32.0 °F 100% 29.74 in 5.0 mi ESE 5.8 mph - N/A   Overcast
7:15 PM 32.0 °F 26.4 °F 32.0 °F 100% 29.72 in 1.8 mi ESE 5.8 mph - N/A   Overcast
7:35 PM 32.0 °F 26.4 °F 32.0 °F 100% 29.72 in 0.8 mi ESE 5.8 mph - N/A   Overcast
7:55 PM 32.0 °F 26.4 °F 32.0 °F 100% 29.70 in 0.5 mi ESE 5.8 mph - N/A Fog Fog
8:15 PM 32.0 °F 25.6 °F 32.0 °F 100% 29.68 in 0.5 mi East 6.9 mph - N/A Fog Fog
8:35 PM 32.0 °F 26.4 °F 32.0 °F 100% 29.67 in 0.5 mi ESE 5.8 mph - N/A Fog Fog
8:55 PM 32.0 °F 25.6 °F 32.0 °F 100% 29.66 in 0.8 mi ESE 6.9 mph - N/A   Overcast
9:15 PM 33.8 °F 27.7 °F 32.0 °F 93% 29.64 in 1.0 mi ESE 6.9 mph - N/A   Overcast
9:35 PM 33.8 °F 26.4 °F 32.0 °F 93% 29.62 in 1.0 mi ESE 9.2 mph - N/A   Overcast
9:55 PM 33.8 °F 25.3 °F 33.8 °F 100% 29.61 in 0.8 mi ESE 11.5 mph - N/A   Overcast
10:15 PM 33.8 °F 26.4 °F 33.8 °F 100% 29.60 in 0.5 mi SE 9.2 mph - N/A Fog Fog
10:35 PM 33.8 °F 27.0 °F 33.8 °F 100% 29.59 in 0.5 mi SE 8.1 mph - N/A Fog Fog
10:55 PM 33.8 °F 25.8 °F 33.8 °F 100% 29.58 in 0.2 mi SE 10.4 mph - N/A Fog Fog
11:15 PM 33.8 °F 27.7 °F 33.8 °F 100% 29.58 in 0.2 mi SSE 6.9 mph - N/A Fog Fog
11:35 PM 33.8 °F - 33.8 °F 100% 29.58 in 0.2 mi Calm Calm - N/A Fog Fog
11:55 PM 33.8 °F - 33.8 °F 100% 29.56 in 0.2 mi Calm Calm - 0.02 in Snow Light Snow